Time,TemperatureF,DewpointF,PressureIn,WindDirection,WindDirectionDegrees,WindSpeedMPH,WindSpeedGustMPH,Humidity,HourlyPrecipIn,Conditions,Clouds,dailyrainin,SoftwareType,DateUTC
2013-06-21 00:00:00,69.9,63.8,30.10,SE,144,0.0,0.0,81,0.00,,,0.00,Wunderground v.1.15,2013-06-21 05:00:00,
2013-06-21 00:05:00,69.8,63.7,30.10,SE,144,0.0,0.0,81,0.00,,,0.00,Wunderground v.1.15,2013-06-21 05:05:00,
2013-06-21 00:15:00,69.6,63.5,30.10,SE,144,0.0,0.0,81,0.00,,,0.00,Wunderground v.1.15,2013-06-21 05:15:00,
2013-06-21 00:20:00,69.6,63.5,30.10,SE,144,0.0,0.0,81,0.00,,,0.00,Wunderground v.1.15,2013-06-21 05:20:00,
2013-06-21 00:25:00,69.6,63.5,30.09,SE,144,0.0,0.0,81,0.00,,,0.00,Wunderground v.1.15,2013-06-21 05:25:00,
2013-06-21 00:30:00,69.7,63.6,30.09,SE,144,0.0,0.0,81,0.00,,,0.00,Wunderground v.1.15,2013-06-21 05:30:00,
2013-06-21 00:35:00,69.7,63.6,30.09,SE,144,0.0,0.0,81,0.00,,,0.00,Wunderground v.1.15,2013-06-21 05:35:00,
2013-06-21 00:40:00,69.9,63.8,30.09,SE,144,0.0,0.0,81,0.00,,,0.00,Wunderground v.1.15,2013-06-21 05:40:00,
2013-06-21 00:45:00,70.0,63.9,30.09,ESE,121,0.0,0.0,81,0.00,,,0.00,Wunderground v.1.15,2013-06-21 05:45:00,
2013-06-21 00:55:00,71.3,64.1,30.09,ESE,121,0.0,0.0,78,0.00,,,0.00,Wunderground v.1.15,2013-06-21 05:55:00,
2013-06-21 01:00:00,73.1,64.3,30.09,ESE,121,0.0,0.0,74,0.00,,,0.00,Wunderground v.1.15,2013-06-21 06:00:00,
2013-06-21 01:05:00,74.2,64.2,30.09,ESE,121,0.0,0.0,71,0.00,,,0.00,Wunderground v.1.15,2013-06-21 06:05:00,
2013-06-21 01:15:00,74.8,63.9,30.09,ESE,123,0.0,0.0,69,0.00,,,0.00,Wunderground v.1.15,2013-06-21 06:15:00,
2013-06-21 01:25:00,74.9,64.0,30.09,SE,128,0.0,0.0,69,0.00,,,0.00,Wunderground v.1.15,2013-06-21 06:25:00,
2013-06-21 01:30:00,74.8,63.9,30.09,SE,136,0.0,0.0,69,0.00,,,0.00,Wunderground v.1.15,2013-06-21 06:30:00,
2013-06-21 01:35:00,74.9,64.0,30.09,SE,136,0.0,0.0,69,0.00,,,0.00,Wunderground v.1.15,2013-06-21 06:35:00,
2013-06-21 01:40:00,74.9,64.0,30.09,SE,136,0.0,0.0,69,0.00,,,0.00,Wunderground v.1.15,2013-06-21 06:40:00,
2013-06-21 01:45:00,74.8,63.9,30.08,SE,138,0.0,2.0,69,0.00,,,0.00,Wunderground v.1.15,2013-06-21 06:45:00,
2013-06-21 01:50:00,74.7,64.3,30.09,South,191,0.0,0.0,70,0.00,,,0.00,Wunderground v.1.15,2013-06-21 06:50:00,
2013-06-21 02:00:00,74.8,64.4,30.09,SE,128,0.0,0.0,70,0.00,,,0.00,Wunderground v.1.15,2013-06-21 07:00:00,
2013-06-21 02:05:00,75.0,64.5,30.09,South,187,0.0,0.0,70,0.00,,,0.00,Wunderground v.1.15,2013-06-21 07:05:00,
2013-06-21 02:15:00,75.3,64.4,30.08,SE,132,0.0,0.0,69,0.00,,,0.00,Wunderground v.1.15,2013-06-21 07:15:00,
2013-06-21 02:20:00,75.3,64.4,30.09,SE,143,0.0,0.0,69,0.00,,,0.00,Wunderground v.1.15,2013-06-21 07:20:00,
2013-06-21 02:25:00,75.2,64.7,30.09,SE,143,0.0,0.0,70,0.00,,,0.00,Wunderground v.1.15,2013-06-21 07:25:00,
2013-06-21 02:30:00,75.2,64.7,30.09,SE,142,0.0,0.0,70,0.00,,,0.00,Wunderground v.1.15,2013-06-21 07:30:00,
2013-06-21 02:40:00,75.1,64.6,30.09,SE,134,0.0,0.0,70,0.00,,,0.00,Wunderground v.1.15,2013-06-21 07:40:00,
2013-06-21 02:50:00,75.2,64.7,30.08,SE,133,0.0,0.0,70,0.00,,,0.00,Wunderground v.1.15,2013-06-21 07:50:00,
2013-06-21 02:55:00,75.0,64.5,30.08,SE,133,0.0,0.0,70,0.00,,,0.00,Wunderground v.1.15,2013-06-21 07:55:00,
2013-06-21 03:00:00,75.0,64.5,30.08,ESE,121,0.0,2.0,70,0.00,,,0.00,Wunderground v.1.15,2013-06-21 08:00:00,
2013-06-21 03:05:00,74.9,64.5,30.08,SE,138,0.0,2.0,70,0.00,,,0.00,Wunderground v.1.15,2013-06-21 08:05:00,
2013-06-21 03:15:00,74.8,65.2,30.09,SE,138,0.0,0.0,72,0.00,,,0.01,Wunderground v.1.15,2013-06-21 08:15:00,
2013-06-21 03:20:00,73.4,65.4,30.08,SE,138,0.0,0.0,76,0.00,,,0.01,Wunderground v.1.15,2013-06-21 08:20:00,
2013-06-21 03:25:00,71.9,65.4,30.07,SE,138,0.0,0.0,80,0.00,,,0.01,Wunderground v.1.15,2013-06-21 08:25:00,
2013-06-21 03:30:00,71.3,65.5,30.07,SE,137,0.0,0.0,82,0.00,,,0.01,Wunderground v.1.15,2013-06-21 08:30:00,
2013-06-21 03:40:00,70.5,65.4,30.07,SE,138,0.0,0.0,84,0.00,,,0.02,Wunderground v.1.15,2013-06-21 08:40:00,
2013-06-21 03:45:00,70.2,65.5,30.07,SE,138,0.0,0.0,85,0.00,,,0.02,Wunderground v.1.15,2013-06-21 08:45:00,
2013-06-21 03:55:00,70.6,65.2,30.06,SSE,165,0.0,0.0,83,0.00,,,0.02,Wunderground v.1.15,2013-06-21 08:55:00,
2013-06-21 04:00:00,70.9,65.1,30.06,SE,136,0.0,0.0,82,0.00,,,0.02,Wunderground v.1.15,2013-06-21 09:00:00,
2013-06-21 04:05:00,71.1,65.0,30.06,SE,136,0.0,1.0,81,0.00,,,0.02,Wunderground v.1.15,2013-06-21 09:05:00,
2013-06-21 04:15:00,71.6,64.7,30.06,SE,130,0.0,0.0,79,0.00,,,0.02,Wunderground v.1.15,2013-06-21 09:15:00,
2013-06-21 04:20:00,71.8,64.9,30.06,SSE,159,0.0,0.0,79,0.00,,,0.02,Wunderground v.1.15,2013-06-21 09:20:00,
2013-06-21 04:25:00,72.1,64.9,30.06,SSE,152,0.0,0.0,78,0.00,,,0.02,Wunderground v.1.15,2013-06-21 09:25:00,
2013-06-21 04:30:00,72.2,64.6,30.05,SE,144,0.0,0.0,77,0.00,,,0.02,Wunderground v.1.15,2013-06-21 09:30:00,
2013-06-21 04:35:00,72.3,64.3,30.06,SSE,155,0.0,0.0,76,0.00,,,0.02,Wunderground v.1.15,2013-06-21 09:35:00,
2013-06-21 04:40:00,72.6,64.2,30.05,SSE,153,0.0,0.0,75,0.00,,,0.02,Wunderground v.1.15,2013-06-21 09:40:00,
2013-06-21 04:45:00,72.9,64.5,30.06,ESE,119,1.0,1.0,75,0.00,,,0.02,Wunderground v.1.15,2013-06-21 09:45:00,
2013-06-21 04:50:00,73.1,64.3,30.06,SSE,160,1.0,1.0,74,0.00,,,0.02,Wunderground v.1.15,2013-06-21 09:50:00,
2013-06-21 04:55:00,73.1,64.3,30.06,SE,134,0.0,1.0,74,0.00,,,0.02,Wunderground v.1.15,2013-06-21 09:55:00,
2013-06-21 05:05:00,73.1,64.3,30.06,SSE,160,0.0,0.0,74,0.00,,,0.02,Wunderground v.1.15,2013-06-21 10:05:00,
2013-06-21 05:15:00,73.1,64.3,30.06,ESE,115,1.0,2.0,74,0.00,,,0.02,Wunderground v.1.15,2013-06-21 10:15:00,
2013-06-21 05:20:00,73.1,64.3,30.06,SSE,159,1.0,1.0,74,0.00,,,0.02,Wunderground v.1.15,2013-06-21 10:20:00,
2013-06-21 05:30:00,73.1,64.7,30.06,SE,130,0.0,0.0,75,0.00,,,0.02,Wunderground v.1.15,2013-06-21 10:30:00,
2013-06-21 05:35:00,73.1,64.3,30.05,SE,144,0.0,1.0,74,0.00,,,0.02,Wunderground v.1.15,2013-06-21 10:35:00,
2013-06-21 05:40:00,73.1,64.7,30.05,South,178,1.0,1.0,75,0.00,,,0.02,Wunderground v.1.15,2013-06-21 10:40:00,
2013-06-21 05:45:00,73.1,64.7,30.05,SSE,163,1.0,1.0,75,0.00,,,0.02,Wunderground v.1.15,2013-06-21 10:45:00,
2013-06-21 05:50:00,73.1,65.1,30.05,SSE,158,0.0,1.0,76,0.00,,,0.02,Wunderground v.1.15,2013-06-21 10:50:00,
2013-06-21 06:00:00,73.1,65.1,30.04,SSE,152,0.0,2.0,76,0.00,,,0.02,Wunderground v.1.15,2013-06-21 11:00:00,
2013-06-21 06:05:00,73.2,65.6,30.04,SSE,163,0.0,2.0,77,0.00,,,0.02,Wunderground v.1.15,2013-06-21 11:05:00,
2013-06-21 06:15:00,73.4,65.7,30.04,ESE,120,0.0,2.0,77,0.00,,,0.02,Wunderground v.1.15,2013-06-21 11:15:00,
2013-06-21 06:20:00,73.6,65.9,30.04,ESE,113,1.0,4.0,77,0.00,,,0.02,Wunderground v.1.15,2013-06-21 11:20:00,
2013-06-21 06:25:00,73.9,66.2,30.04,SSE,163,1.0,4.0,77,0.00,,,0.02,Wunderground v.1.15,2013-06-21 11:25:00,
2013-06-21 06:35:00,74.2,66.5,30.06,ESE,115,0.0,0.0,77,0.00,,,0.02,Wunderground v.1.15,2013-06-21 11:35:00,
2013-06-21 06:40:00,74.4,66.7,30.06,SE,133,1.0,1.0,77,0.00,,,0.02,Wunderground v.1.15,2013-06-21 11:40:00,
2013-06-21 06:50:00,74.7,67.0,30.05,SE,126,1.0,4.0,77,0.00,,,0.02,Wunderground v.1.15,2013-06-21 11:50:00,
2013-06-21 06:55:00,74.8,67.1,30.04,ESE,122,1.0,4.0,77,0.00,,,0.02,Wunderground v.1.15,2013-06-21 11:55:00,
2013-06-21 07:00:00,75.0,67.3,30.04,SSE,160,2.0,2.0,77,0.00,,,0.02,Wunderground v.1.15,2013-06-21 12:00:00,
2013-06-21 07:05:00,75.1,67.4,30.03,SE,146,1.0,2.0,77,0.00,,,0.02,Wunderground v.1.15,2013-06-21 12:05:00,
2013-06-21 07:15:00,75.1,67.4,30.04,SSE,163,1.0,1.0,77,0.00,,,0.02,Wunderground v.1.15,2013-06-21 12:15:00,
2013-06-21 07:20:00,75.1,67.4,30.03,ESE,121,1.0,2.0,77,0.00,,,0.02,Wunderground v.1.15,2013-06-21 12:20:00,
2013-06-21 07:25:00,75.1,67.4,30.03,SSE,160,1.0,2.0,77,0.00,,,0.02,Wunderground v.1.15,2013-06-21 12:25:00,
2013-06-21 07:35:00,75.0,67.3,30.02,SE,126,1.0,1.0,77,0.00,,,0.02,Wunderground v.1.15,2013-06-21 12:35:00,
2013-06-21 07:45:00,75.1,67.4,30.02,SE,130,1.0,5.0,77,0.00,,,0.02,Wunderground v.1.15,2013-06-21 12:45:00,
2013-06-21 07:50:00,75.2,67.5,30.03,SSW,207,2.0,3.0,77,0.00,,,0.02,Wunderground v.1.15,2013-06-21 12:50:00,
2013-06-21 07:55:00,75.3,67.6,30.03,SE,138,1.0,3.0,77,0.00,,,0.02,Wunderground v.1.15,2013-06-21 12:55:00,
2013-06-21 08:00:00,75.4,67.7,30.03,SSE,167,1.0,5.0,77,0.00,,,0.02,Wunderground v.1.15,2013-06-21 13:00:00,
2013-06-21 08:05:00,75.4,67.7,30.02,South,184,1.0,5.0,77,0.00,,,0.02,Wunderground v.1.15,2013-06-21 13:05:00,
2013-06-21 08:15:00,75.5,68.2,30.02,SSE,147,1.0,1.0,78,0.00,,,0.02,Wunderground v.1.15,2013-06-21 13:15:00,
2013-06-21 08:20:00,75.6,68.3,30.03,SE,125,1.0,1.0,78,0.00,,,0.02,Wunderground v.1.15,2013-06-21 13:20:00,
2013-06-21 08:25:00,75.8,68.1,30.03,SSE,165,1.0,1.0,77,0.00,,,0.02,Wunderground v.1.15,2013-06-21 13:25:00,
2013-06-21 08:30:00,75.9,68.2,30.04,ESE,110,1.0,1.0,77,0.00,,,0.02,Wunderground v.1.15,2013-06-21 13:30:00,
2013-06-21 08:40:00,76.2,68.5,30.05,SE,128,1.0,1.0,77,0.00,,,0.02,Wunderground v.1.15,2013-06-21 13:40:00,
2013-06-21 08:50:00,76.3,68.6,30.05,SE,130,1.0,1.0,77,0.00,,,0.02,Wunderground v.1.15,2013-06-21 13:50:00,
2013-06-21 08:55:00,76.3,68.9,30.05,ESE,117,1.0,1.0,78,0.00,,,0.02,Wunderground v.1.15,2013-06-21 13:55:00,
2013-06-21 09:15:00,76.7,69.3,30.07,East,86,0.0,0.0,78,0.00,,,0.02,Wunderground v.1.15,2013-06-21 14:15:00,
2013-06-21 09:20:00,76.8,69.4,30.08,East,95,0.0,0.0,78,0.00,,,0.02,Wunderground v.1.15,2013-06-21 14:20:00,
2013-06-21 09:30:00,76.9,69.5,30.09,North,5,0.0,0.0,78,0.00,,,0.02,Wunderground v.1.15,2013-06-21 14:30:00,
2013-06-21 09:35:00,76.9,69.5,30.10,North,360,0.0,0.0,78,0.00,,,0.02,Wunderground v.1.15,2013-06-21 14:35:00,
2013-06-21 09:40:00,76.9,69.5,30.10,North,360,0.0,0.0,78,0.00,,,0.02,Wunderground v.1.15,2013-06-21 14:40:00,
2013-06-21 09:45:00,76.7,69.3,30.10,NW,311,0.0,3.0,78,0.00,,,0.02,Wunderground v.1.15,2013-06-21 14:45:00,
2013-06-21 09:50:00,76.6,69.6,30.12,NNW,334,3.0,13.0,79,0.00,,,0.02,Wunderground v.1.15,2013-06-21 14:50:00,
2013-06-21 10:00:00,75.2,65.9,30.13,NW,316,7.0,7.0,73,0.00,,,0.02,Wunderground v.1.15,2013-06-21 15:00:00,
2013-06-21 10:05:00,74.5,64.1,30.14,NW,309,7.0,13.0,70,0.00,,,0.02,Wunderground v.1.15,2013-06-21 15:05:00,
2013-06-21 10:15:00,71.4,63.1,30.15,NW,321,6.0,9.0,75,0.00,,,0.02,Wunderground v.1.15,2013-06-21 15:15:00,
2013-06-21 10:25:00,68.1,63.4,30.14,NW,325,5.0,9.0,85,0.22,,,0.06,Wunderground v.1.15,2013-06-21 15:25:00,
2013-06-21 10:30:00,67.2,63.5,30.15,NW,319,3.0,3.0,88,0.08,,,0.06,Wunderground v.1.15,2013-06-21 15:30:00,
2013-06-21 10:35:00,66.8,63.5,30.14,NNW,330,2.0,3.0,89,0.05,,,0.06,Wunderground v.1.15,2013-06-21 15:35:00,
2013-06-21 10:40:00,66.5,63.5,30.15,NNW,340,1.0,1.0,90,0.04,,,0.07,Wunderground v.1.15,2013-06-21 15:40:00,
2013-06-21 10:50:00,66.1,63.4,30.14,NW,319,0.0,0.0,91,0.25,,,0.09,Wunderground v.1.15,2013-06-21 15:50:00,
2013-06-21 10:55:00,65.9,63.2,30.14,NW,320,0.0,0.0,91,0.08,,,0.09,Wunderground v.1.15,2013-06-21 15:55:00,
2013-06-21 11:00:00,65.9,63.5,30.14,NW,319,0.0,0.0,92,0.05,,,0.09,Wunderground v.1.15,2013-06-21 16:00:00,
2013-06-21 11:05:00,66.0,63.6,30.15,NW,320,0.0,0.0,92,0.00,,,0.09,Wunderground v.1.15,2013-06-21 16:05:00,
2013-06-21 11:15:00,66.0,63.6,30.15,NW,320,0.0,0.0,92,0.00,,,0.09,Wunderground v.1.15,2013-06-21 16:15:00,
2013-06-21 11:20:00,66.1,64.0,30.14,NW,319,0.0,0.0,93,0.00,,,0.09,Wunderground v.1.15,2013-06-21 16:20:00,
2013-06-21 11:25:00,66.3,64.2,30.15,NW,320,0.0,0.0,93,0.00,,,0.09,Wunderground v.1.15,2013-06-21 16:25:00,
2013-06-21 11:30:00,66.3,64.2,30.15,NW,320,0.0,0.0,93,0.00,,,0.09,Wunderground v.1.15,2013-06-21 16:30:00,
2013-06-21 11:35:00,66.4,64.3,30.15,NW,320,0.0,0.0,93,0.00,,,0.09,Wunderground v.1.15,2013-06-21 16:35:00,
2013-06-21 11:45:00,66.4,64.3,30.17,NW,319,0.0,0.0,93,0.00,,,0.09,Wunderground v.1.15,2013-06-21 16:45:00,
2013-06-21 11:50:00,66.5,64.7,30.17,NW,320,0.0,0.0,94,0.00,,,0.09,Wunderground v.1.15,2013-06-21 16:50:00,
2013-06-21 12:00:00,66.2,64.4,30.17,NW,321,0.0,0.0,94,0.00,,,0.10,Wunderground v.1.15,2013-06-21 17:00:00,
2013-06-21 12:05:00,66.0,64.2,30.17,NW,321,0.0,0.0,94,0.11,,,0.11,Wunderground v.1.15,2013-06-21 17:05:00,
2013-06-21 12:15:00,65.9,64.1,30.17,NW,321,0.0,0.0,94,0.20,,,0.17,Wunderground v.1.15,2013-06-21 17:15:00,
2013-06-21 12:20:00,65.8,64.0,30.17,NW,321,0.0,0.0,94,0.07,,,0.17,Wunderground v.1.15,2013-06-21 17:20:00,
2013-06-21 12:35:00,65.8,64.3,30.18,NW,321,0.0,0.0,95,0.00,,,0.17,Wunderground v.1.15,2013-06-21 17:35:00,
2013-06-21 12:45:00,65.9,64.4,30.17,NW,321,0.0,0.0,95,0.00,,,0.18,Wunderground v.1.15,2013-06-21 17:45:00,
2013-06-21 12:50:00,65.8,64.3,30.16,NW,321,0.0,0.0,95,0.16,,,0.20,Wunderground v.1.15,2013-06-21 17:50:00,
2013-06-21 12:55:00,65.6,64.1,30.14,NW,321,0.0,0.0,95,0.15,,,0.21,Wunderground v.1.15,2013-06-21 17:55:00,
2013-06-21 13:00:00,65.6,64.1,30.14,SSE,154,0.0,0.0,95,0.07,,,0.21,Wunderground v.1.15,2013-06-21 18:00:00,
2013-06-21 13:05:00,65.5,64.0,30.15,South,172,0.0,0.0,95,0.04,,,0.21,Wunderground v.1.15,2013-06-21 18:05:00,
2013-06-21 13:15:00,65.6,64.1,30.12,SE,141,0.0,0.0,95,0.00,,,0.21,Wunderground v.1.15,2013-06-21 18:15:00,
2013-06-21 13:25:00,65.5,64.0,30.07,SSE,159,2.0,5.0,95,0.08,,,0.23,Wunderground v.1.15,2013-06-21 18:25:00,
2013-06-21 13:30:00,65.5,64.0,30.02,East,90,2.0,2.0,95,0.08,,,0.23,Wunderground v.1.15,2013-06-21 18:30:00,
2013-06-21 13:35:00,65.5,64.0,30.02,East,98,2.0,2.0,95,0.05,,,0.23,Wunderground v.1.15,2013-06-21 18:35:00,
2013-06-21 13:40:00,65.6,64.4,30.01,SSE,164,2.0,2.0,96,0.04,,,0.23,Wunderground v.1.15,2013-06-21 18:40:00,
2013-06-21 13:50:00,65.9,64.4,30.00,SSE,168,3.0,7.0,95,0.00,,,0.23,Wunderground v.1.15,2013-06-21 18:50:00,
2013-06-21 13:55:00,66.2,64.7,30.01,SSE,148,4.0,7.0,95,0.00,,,0.23,Wunderground v.1.15,2013-06-21 18:55:00,
2013-06-21 14:00:00,66.4,64.9,30.00,SSE,150,4.0,4.0,95,0.00,,,0.23,Wunderground v.1.15,2013-06-21 19:00:00,
2013-06-21 14:05:00,66.7,64.9,29.98,SSE,150,4.0,4.0,94,0.00,,,0.23,Wunderground v.1.15,2013-06-21 19:05:00,
2013-06-21 14:15:00,67.3,65.2,29.95,SSE,163,6.0,6.0,93,0.00,,,0.23,Wunderground v.1.15,2013-06-21 19:15:00,
2013-06-21 14:20:00,67.4,65.0,29.95,SE,142,5.0,5.0,92,0.00,,,0.23,Wunderground v.1.15,2013-06-21 19:20:00,
2013-06-21 14:25:00,67.7,65.3,29.97,SSE,150,4.0,5.0,92,0.00,,,0.23,Wunderground v.1.15,2013-06-21 19:25:00,
2013-06-21 14:35:00,68.4,65.4,29.97,SE,140,2.0,3.0,90,0.00,,,0.23,Wunderground v.1.15,2013-06-21 19:35:00,
2013-06-21 14:40:00,68.8,65.4,29.98,SSE,167,1.0,12.0,89,0.00,,,0.23,Wunderground v.1.15,2013-06-21 19:40:00,
2013-06-21 14:45:00,69.0,65.6,29.98,SSE,150,2.0,12.0,89,0.00,,,0.23,Wunderground v.1.15,2013-06-21 19:45:00,
2013-06-21 14:55:00,69.6,66.2,29.99,SE,140,1.0,2.0,89,0.00,,,0.23,Wunderground v.1.15,2013-06-21 19:55:00,
2013-06-21 15:00:00,69.7,66.3,29.99,SSE,152,1.0,1.0,89,0.00,,,0.23,Wunderground v.1.15,2013-06-21 20:00:00,
2013-06-21 15:05:00,69.8,66.4,29.98,South,180,1.0,6.0,89,0.00,,,0.23,Wunderground v.1.15,2013-06-21 20:05:00,
2013-06-21 15:15:00,70.3,66.9,29.98,SSE,149,1.0,2.0,89,0.00,,,0.23,Wunderground v.1.15,2013-06-21 20:15:00,
2013-06-21 15:20:00,70.6,66.9,29.98,ESE,117,1.0,1.0,88,0.00,,,0.23,Wunderground v.1.15,2013-06-21 20:20:00,
2013-06-21 15:25:00,70.8,67.1,29.98,SE,129,1.0,1.0,88,0.00,,,0.23,Wunderground v.1.15,2013-06-21 20:25:00,
2013-06-21 15:30:00,71.1,67.0,29.98,ESE,120,1.0,1.0,87,0.00,,,0.23,Wunderground v.1.15,2013-06-21 20:30:00,
2013-06-21 15:35:00,71.3,67.2,29.98,SSE,153,1.0,4.0,87,0.00,,,0.23,Wunderground v.1.15,2013-06-21 20:35:00,
2013-06-21 15:40:00,71.5,66.8,29.98,SSE,158,2.0,2.0,85,0.00,,,0.23,Wunderground v.1.15,2013-06-21 20:40:00,
2013-06-21 15:45:00,71.8,67.4,29.99,SSE,149,2.0,2.0,86,0.00,,,0.23,Wunderground v.1.15,2013-06-21 20:45:00,
2013-06-21 15:50:00,72.0,67.2,29.99,SE,138,1.0,1.0,85,0.00,,,0.23,Wunderground v.1.15,2013-06-21 20:50:00,
2013-06-21 15:55:00,72.1,67.0,29.99,SE,138,2.0,2.0,84,0.00,,,0.23,Wunderground v.1.15,2013-06-21 20:55:00,
2013-06-21 16:05:00,72.4,67.3,30.00,SSE,165,1.0,2.0,84,0.00,,,0.23,Wunderground v.1.15,2013-06-21 21:05:00,
2013-06-21 16:15:00,72.6,67.1,30.01,ESE,115,2.0,4.0,83,0.00,,,0.23,Wunderground v.1.15,2013-06-21 21:15:00,
2013-06-21 16:25:00,72.6,67.1,30.02,SSE,153,1.0,4.0,83,0.00,,,0.23,Wunderground v.1.15,2013-06-21 21:25:00,
2013-06-21 16:30:00,72.5,67.0,30.02,SSE,160,1.0,4.0,83,0.00,,,0.23,Wunderground v.1.15,2013-06-21 21:30:00,
2013-06-21 16:35:00,72.4,66.6,30.02,SSE,163,1.0,4.0,82,0.00,,,0.23,Wunderground v.1.15,2013-06-21 21:35:00,
2013-06-21 16:45:00,72.4,66.6,30.02,SSE,155,1.0,4.0,82,0.00,,,0.23,Wunderground v.1.15,2013-06-21 21:45:00,
2013-06-21 16:55:00,72.4,66.6,30.02,SSE,160,1.0,1.0,82,0.00,,,0.23,Wunderground v.1.15,2013-06-21 21:55:00,
2013-06-21 17:00:00,72.4,66.6,30.02,South,169,1.0,1.0,82,0.00,,,0.23,Wunderground v.1.15,2013-06-21 22:00:00,
2013-06-21 17:05:00,72.3,66.1,30.02,SSE,152,1.0,2.0,81,0.00,,,0.23,Wunderground v.1.15,2013-06-21 22:05:00,
2013-06-21 17:15:00,72.4,66.2,30.02,SSW,192,2.0,3.0,81,0.00,,,0.23,Wunderground v.1.15,2013-06-21 22:15:00,
2013-06-21 17:20:00,72.4,66.2,30.02,SSE,151,1.0,1.0,81,0.00,,,0.23,Wunderground v.1.15,2013-06-21 22:20:00,
2013-06-21 17:25:00,72.4,65.9,30.02,SSE,166,1.0,1.0,80,0.00,,,0.23,Wunderground v.1.15,2013-06-21 22:25:00,
2013-06-21 17:35:00,72.4,65.9,30.02,SSE,147,1.0,1.0,80,0.00,,,0.23,Wunderground v.1.15,2013-06-21 22:35:00,
2013-06-21 17:40:00,72.4,65.9,30.01,SE,137,1.0,1.0,80,0.00,,,0.23,Wunderground v.1.15,2013-06-21 22:40:00,
2013-06-21 17:45:00,72.5,66.0,30.00,SE,144,1.0,1.0,80,0.00,,,0.23,Wunderground v.1.15,2013-06-21 22:45:00,
2013-06-21 17:50:00,72.6,66.1,30.00,SSE,168,0.0,0.0,80,0.00,,,0.23,Wunderground v.1.15,2013-06-21 22:50:00,
2013-06-21 18:00:00,72.8,66.6,29.99,ESE,122,1.0,4.0,81,0.00,,,0.23,Wunderground v.1.15,2013-06-21 23:00:00,
2013-06-21 18:05:00,72.8,65.9,29.99,South,171,1.0,4.0,79,0.00,,,0.23,Wunderground v.1.15,2013-06-21 23:05:00,
2013-06-21 18:15:00,72.9,66.7,29.99,SSE,162,0.0,0.0,81,0.00,,,0.23,Wunderground v.1.15,2013-06-21 23:15:00,
2013-06-21 18:20:00,72.9,66.7,30.00,SSE,165,0.0,1.0,81,0.00,,,0.23,Wunderground v.1.15,2013-06-21 23:20:00,
2013-06-21 18:30:00,72.8,66.3,29.99,SSE,153,1.0,1.0,80,0.00,,,0.23,Wunderground v.1.15,2013-06-21 23:30:00,
2013-06-21 18:35:00,72.9,66.7,29.99,South,172,0.0,1.0,81,0.00,,,0.23,Wunderground v.1.15,2013-06-21 23:35:00,
2013-06-21 18:45:00,73.0,66.8,29.99,South,172,0.0,0.0,81,0.00,,,0.23,Wunderground v.1.15,2013-06-21 23:45:00,
2013-06-21 18:50:00,73.0,66.8,29.99,ESE,119,0.0,0.0,81,0.00,,,0.23,Wunderground v.1.15,2013-06-21 23:50:00,
2013-06-21 18:55:00,73.0,66.8,29.99,SE,142,0.0,0.0,81,0.00,,,0.23,Wunderground v.1.15,2013-06-21 23:55:00,
2013-06-21 19:00:00,73.0,66.8,29.99,SE,137,0.0,0.0,81,0.00,,,0.23,Wunderground v.1.15,2013-06-22 00:00:00,
2013-06-21 19:05:00,73.0,66.8,29.99,SE,137,0.0,0.0,81,0.00,,,0.23,Wunderground v.1.15,2013-06-22 00:05:00,
2013-06-21 19:15:00,72.9,67.1,29.99,SE,141,0.0,0.0,82,0.00,,,0.23,Wunderground v.1.15,2013-06-22 00:15:00,
2013-06-21 19:20:00,72.8,67.0,30.00,South,180,1.0,1.0,82,0.00,,,0.23,Wunderground v.1.15,2013-06-22 00:20:00,
2013-06-21 19:30:00,72.6,67.1,30.00,South,180,1.0,1.0,83,0.00,,,0.23,Wunderground v.1.15,2013-06-22 00:30:00,
2013-06-21 19:35:00,72.6,67.1,30.00,SSE,165,1.0,1.0,83,0.00,,,0.23,Wunderground v.1.15,2013-06-22 00:35:00,
2013-06-21 19:40:00,72.6,67.1,30.01,South,180,1.0,1.0,83,0.00,,,0.23,Wunderground v.1.15,2013-06-22 00:40:00,
2013-06-21 19:50:00,72.6,67.5,30.01,ESE,119,0.0,0.0,84,0.00,,,0.23,Wunderground v.1.15,2013-06-22 00:50:00,
2013-06-21 19:55:00,72.6,67.8,30.01,ESE,119,0.0,0.0,85,0.00,,,0.23,Wunderground v.1.15,2013-06-22 00:55:00,
2013-06-21 20:00:00,72.6,67.8,30.02,ESE,119,0.0,0.0,85,0.00,,,0.23,Wunderground v.1.15,2013-06-22 01:00:00,
2013-06-21 20:05:00,72.6,67.8,30.02,ESE,119,0.0,0.0,85,0.00,,,0.23,Wunderground v.1.15,2013-06-22 01:05:00,
2013-06-21 20:15:00,72.5,67.7,30.03,ESE,118,0.0,0.0,85,0.00,,,0.23,Wunderground v.1.15,2013-06-22 01:15:00,
2013-06-21 20:25:00,72.3,67.9,30.03,ESE,119,0.0,0.0,86,0.00,,,0.23,Wunderground v.1.15,2013-06-22 01:25:00,
2013-06-21 20:30:00,72.1,67.7,30.03,ESE,119,0.0,0.0,86,0.00,,,0.23,Wunderground v.1.15,2013-06-22 01:30:00,
2013-06-21 20:35:00,71.9,67.8,30.03,ESE,118,0.0,0.0,87,0.00,,,0.23,Wunderground v.1.15,2013-06-22 01:35:00,
2013-06-21 20:40:00,71.7,67.6,30.04,ESE,119,0.0,0.0,87,0.00,,,0.23,Wunderground v.1.15,2013-06-22 01:40:00,
2013-06-21 20:45:00,71.5,67.4,30.05,ESE,119,0.0,0.0,87,0.00,,,0.23,Wunderground v.1.15,2013-06-22 01:45:00,
2013-06-21 20:55:00,71.1,67.4,30.05,ESE,118,0.0,0.0,88,0.00,,,0.23,Wunderground v.1.15,2013-06-22 01:55:00,
2013-06-21 21:00:00,70.8,67.1,30.06,ESE,118,0.0,0.0,88,0.00,,,0.23,Wunderground v.1.15,2013-06-22 02:00:00,
2013-06-21 21:05:00,70.6,67.2,30.06,ESE,119,0.0,0.0,89,0.00,,,0.23,Wunderground v.1.15,2013-06-22 02:05:00,
2013-06-21 21:15:00,70.2,66.8,30.06,ESE,119,0.0,0.0,89,0.00,,,0.23,Wunderground v.1.15,2013-06-22 02:15:00,
2013-06-21 21:20:00,69.9,66.8,30.06,ESE,118,0.0,0.0,90,0.00,,,0.23,Wunderground v.1.15,2013-06-22 02:20:00,
2013-06-21 21:25:00,69.8,67.1,30.06,ESE,119,0.0,0.0,91,0.00,,,0.23,Wunderground v.1.15,2013-06-22 02:25:00,
2013-06-21 21:30:00,69.7,67.0,30.06,ESE,118,0.0,0.0,91,0.00,,,0.23,Wunderground v.1.15,2013-06-22 02:30:00,
2013-06-21 21:35:00,69.6,66.9,30.06,ESE,119,0.0,0.0,91,0.00,,,0.23,Wunderground v.1.15,2013-06-22 02:35:00,
2013-06-21 21:45:00,69.5,67.1,30.06,ESE,119,0.0,0.0,92,0.00,,,0.23,Wunderground v.1.15,2013-06-22 02:45:00,
2013-06-21 21:55:00,69.4,67.0,30.07,ESE,119,0.0,0.0,92,0.00,,,0.23,Wunderground v.1.15,2013-06-22 02:55:00,
2013-06-21 22:00:00,69.5,67.1,30.07,ESE,119,0.0,0.0,92,0.00,,,0.23,Wunderground v.1.15,2013-06-22 03:00:00,
2013-06-21 22:05:00,69.7,67.3,30.07,ESE,118,0.0,0.0,92,0.00,,,0.23,Wunderground v.1.15,2013-06-22 03:05:00,
2013-06-21 22:15:00,69.6,67.2,30.06,ESE,119,0.0,0.0,92,0.00,,,0.23,Wunderground v.1.15,2013-06-22 03:15:00,
2013-06-21 22:20:00,69.5,67.4,30.06,ESE,118,0.0,0.0,93,0.00,,,0.23,Wunderground v.1.15,2013-06-22 03:20:00,
2013-06-21 22:30:00,69.9,67.5,30.05,ESE,119,0.0,0.0,92,0.00,,,0.23,Wunderground v.1.15,2013-06-22 03:30:00,
2013-06-21 22:35:00,70.3,67.9,30.06,ESE,118,0.0,0.0,92,0.00,,,0.23,Wunderground v.1.15,2013-06-22 03:35:00,
2013-06-21 22:40:00,70.4,67.6,30.06,ESE,119,0.0,0.0,91,0.00,,,0.23,Wunderground v.1.15,2013-06-22 03:40:00,
2013-06-21 22:45:00,70.4,67.6,30.06,ESE,119,0.0,0.0,91,0.00,,,0.24,Wunderground v.1.15,2013-06-22 03:45:00,
2013-06-21 22:50:00,70.3,67.5,30.05,ESE,118,0.0,0.0,91,0.12,,,0.25,Wunderground v.1.15,2013-06-22 03:50:00,
2013-06-21 22:55:00,70.0,67.6,30.05,ESE,118,0.0,0.0,92,0.11,,,0.25,Wunderground v.1.15,2013-06-22 03:55:00,
2013-06-21 23:05:00,69.7,67.6,30.05,ESE,119,0.0,0.0,93,0.04,,,0.25,Wunderground v.1.15,2013-06-22 04:05:00,
2013-06-21 23:10:00,69.6,67.5,30.05,ESE,118,0.0,0.0,93,0.00,,,0.25,Wunderground v.1.15,2013-06-22 04:10:00,
2013-06-21 23:15:00,69.5,67.4,30.05,ESE,119,0.0,0.0,93,0.00,,,0.25,Wunderground v.1.15,2013-06-22 04:15:00,
2013-06-21 23:20:00,69.5,67.4,30.05,ESE,117,0.0,0.0,93,0.00,,,0.25,Wunderground v.1.15,2013-06-22 04:20:00,
2013-06-21 23:25:00,69.5,67.4,30.05,ESE,117,0.0,0.0,93,0.00,,,0.25,Wunderground v.1.15,2013-06-22 04:25:00,
2013-06-21 23:35:00,69.5,67.4,30.05,ESE,117,0.0,0.0,93,0.00,,,0.25,Wunderground v.1.15,2013-06-22 04:35:00,
2013-06-21 23:40:00,69.4,67.3,30.05,ESE,117,0.0,0.0,93,0.00,,,0.25,Wunderground v.1.15,2013-06-22 04:40:00,
2013-06-21 23:45:00,69.3,67.5,30.04,ESE,117,0.0,0.0,94,0.00,,,0.25,Wunderground v.1.15,2013-06-22 04:45:00,
2013-06-21 23:50:00,69.2,67.1,30.03,ESE,117,0.0,0.0,93,0.00,,,0.25,Wunderground v.1.15,2013-06-22 04:50:00,